User: anonymous   Login
Location: Cerbedi�res
(48.2182°N, 1.4849°W)
Time: 23:17:32
(UTC+00:00)
Language:

Cosmos 1844 - Orbit

View from above orbital plane
View from above orbital plane
View from above satellite
View from above satellite

Ground track
Ground track

The orbit data is extracted from the following two-line orbital elements,

1 17973U 87041A   21125.42639244  .00000357  00000-0  21193-3 0  9996
2 17973  70.8976 164.4243 0030478 161.5195 198.7042 14.14119114753430
Epoch (UTC): 05 May 2021 10:14:00
Eccentricity: 0.0030478
inclination: 70.8976°
perigee height: 823 km
apogee height: 867 km
right ascension of ascending node: 164.4243°
argument of perigee: 161.5195°
revolutions per day: 14.14119114
mean anomaly at epoch: 198.7042°
orbit number at epoch: 75343

The dashed part of the orbit path shows where the satellite is in the earth's shadow,  

DLR